TimeCDT,TemperatureF,Dew PointF,Humidity,Sea Level PressureIn,VisibilityMPH,Wind Direction,Wind SpeedMPH,Gust SpeedMPH,PrecipitationIn,Events,Conditions,WindDirDegrees,DateUTC
12:15 AM,77.0,72.9,87,30.01,10.0,Calm,Calm,-,N/A,,Clear,0,2013-07-20 05:15:00
12:35 AM,76.6,73.0,89,30.00,10.0,SSW,6.9,-,N/A,,Clear,200,2013-07-20 05:35:00
12:55 AM,76.5,72.9,89,30.01,10.0,South,5.8,-,N/A,,Clear,180,2013-07-20 05:55:00
1:15 AM,76.5,72.3,87,30.00,10.0,South,4.6,-,N/A,,Clear,190,2013-07-20 06:15:00
1:35 AM,76.1,70.9,84,30.01,10.0,SSW,3.5,-,N/A,,Clear,210,2013-07-20 06:35:00
1:55 AM,75.6,70.3,84,30.00,10.0,Calm,Calm,-,N/A,,Clear,0,2013-07-20 06:55:00
2:15 AM,75.4,70.7,85,30.01,10.0,Calm,Calm,-,N/A,,Clear,0,2013-07-20 07:15:00
2:35 AM,75.4,70.9,86,30.01,10.0,Calm,Calm,-,N/A,,Scattered Clouds,0,2013-07-20 07:35:00
2:55 AM,75.2,71.1,87,30.01,10.0,SSW,5.8,-,N/A,,Clear,200,2013-07-20 07:55:00
3:15 AM,75.7,71.1,85,30.00,10.0,SSW,5.8,-,N/A,,Clear,200,2013-07-20 08:15:00
3:35 AM,75.7,70.5,84,30.01,10.0,SSW,8.1,-,N/A,,Clear,210,2013-07-20 08:35:00
3:55 AM,75.4,70.2,84,30.01,10.0,SW,4.6,-,N/A,,Clear,220,2013-07-20 08:55:00
4:15 AM,75.4,70.2,84,30.01,10.0,SSW,4.6,-,N/A,,Clear,210,2013-07-20 09:15:00
4:35 AM,75.2,70.0,84,30.01,10.0,South,3.5,-,N/A,,Clear,190,2013-07-20 09:35:00
4:55 AM,75.2,70.2,84,30.01,10.0,South,4.6,-,N/A,,Scattered Clouds,190,2013-07-20 09:55:00
5:15 AM,75.2,70.3,85,30.01,10.0,South,5.8,-,N/A,,Clear,180,2013-07-20 10:15:00
5:35 AM,75.2,70.3,85,30.01,10.0,SSW,3.5,-,N/A,,Scattered Clouds,200,2013-07-20 10:35:00
5:55 AM,74.8,70.5,86,30.01,10.0,Calm,Calm,-,N/A,,Clear,0,2013-07-20 10:55:00
6:15 AM,74.8,70.5,86,30.01,10.0,South,3.5,-,N/A,,Clear,190,2013-07-20 11:15:00
6:35 AM,74.8,70.7,87,30.01,10.0,SW,3.5,-,N/A,,Clear,220,2013-07-20 11:35:00
6:55 AM,74.5,70.7,88,30.00,10.0,Calm,Calm,-,N/A,,Clear,0,2013-07-20 11:55:00
7:15 AM,75.0,70.7,86,29.99,10.0,Calm,Calm,-,N/A,,Clear,0,2013-07-20 12:15:00
7:35 AM,75.6,70.9,85,29.99,10.0,SSW,3.5,-,N/A,,Clear,210,2013-07-20 12:35:00
7:55 AM,76.1,70.3,82,29.99,10.0,Calm,Calm,-,N/A,,Clear,0,2013-07-20 12:55:00
8:15 AM,76.3,70.2,81,29.99,10.0,Calm,Calm,-,N/A,,Clear,0,2013-07-20 13:15:00
8:35 AM,77.4,70.7,80,29.99,10.0,Calm,Calm,-,N/A,,Clear,0,2013-07-20 13:35:00
8:55 AM,79.5,70.5,74,29.99,10.0,Calm,Calm,-,N/A,,Clear,0,2013-07-20 13:55:00
9:15 AM,79.7,70.7,74,29.99,10.0,West,3.5,-,N/A,,Clear,270,2013-07-20 14:15:00
9:35 AM,80.8,70.9,72,29.99,10.0,West,3.5,-,N/A,,Clear,280,2013-07-20 14:35:00
9:55 AM,81.9,70.7,69,29.99,10.0,Calm,Calm,-,N/A,,Clear,0,2013-07-20 14:55:00
10:15 AM,83.7,70.9,65,29.99,10.0,SW,3.5,-,N/A,,Clear,230,2013-07-20 15:15:00
10:35 AM,85.5,70.2,60,30.00,10.0,SSW,3.5,-,N/A,,Clear,200,2013-07-20 15:35:00
10:55 AM,85.5,70.7,61,29.99,10.0,Calm,Calm,-,N/A,,Clear,0,2013-07-20 15:55:00
11:15 AM,86.4,71.4,61,29.99,10.0,North,3.5,-,N/A,,Scattered Clouds,360,2013-07-20 16:15:00
11:35 AM,88.7,69.4,53,30.00,10.0,SSE,4.6,-,N/A,,Scattered Clouds,150,2013-07-20 16:35:00
11:55 AM,88.7,69.8,53,29.99,10.0,South,3.5,-,N/A,,Scattered Clouds,180,2013-07-20 16:55:00
12:15 PM,88.0,69.3,54,29.99,10.0,Calm,Calm,-,N/A,,Scattered Clouds,0,2013-07-20 17:15:00
12:35 PM,88.0,69.1,53,29.99,10.0,SW,3.5,-,N/A,,Mostly Cloudy,230,2013-07-20 17:35:00
12:55 PM,88.5,69.3,53,29.98,10.0,North,3.5,-,N/A,,Mostly Cloudy,10,2013-07-20 17:55:00
1:15 PM,91.0,66.2,44,29.97,10.0,East,4.6,-,N/A,,Scattered Clouds,90,2013-07-20 18:15:00
1:35 PM,90.1,67.8,48,29.96,10.0,SSE,5.8,-,N/A,,Scattered Clouds,160,2013-07-20 18:35:00
1:55 PM,90.7,67.6,47,29.96,10.0,East,3.5,-,N/A,,Scattered Clouds,100,2013-07-20 18:55:00
2:15 PM,91.0,68.2,47,29.96,10.0,East,6.9,-,N/A,,Scattered Clouds,90,2013-07-20 19:15:00
2:35 PM,91.2,68.2,47,29.94,10.0,ENE,5.8,-,N/A,,Scattered Clouds,60,2013-07-20 19:35:00
2:55 PM,91.0,67.1,45,29.94,10.0,SSE,6.9,-,N/A,,Scattered Clouds,150,2013-07-20 19:55:00
3:15 PM,91.4,66.9,44,29.93,10.0,ESE,5.8,-,N/A,,Scattered Clouds,110,2013-07-20 20:15:00
3:35 PM,89.8,67.1,47,29.93,10.0,ESE,4.6,-,N/A,,Scattered Clouds,110,2013-07-20 20:35:00
3:55 PM,90.0,67.3,47,29.92,10.0,ESE,4.6,-,N/A,,Clear,110,2013-07-20 20:55:00
4:15 PM,90.5,68.0,47,29.91,10.0,East,3.5,-,N/A,Thunderstorm,Clear,90,2013-07-20 21:15:00
4:35 PM,89.6,68.4,49,29.91,10.0,ENE,5.8,-,N/A,,Clear,70,2013-07-20 21:35:00
4:55 PM,89.2,69.4,52,29.90,10.0,East,5.8,-,N/A,,Clear,80,2013-07-20 21:55:00
5:15 PM,86.5,69.8,57,29.90,10.0,NE,6.9,-,N/A,,Clear,50,2013-07-20 22:15:00
5:35 PM,88.9,69.8,53,29.90,10.0,ENE,4.6,-,N/A,,Clear,60,2013-07-20 22:35:00
5:55 PM,90.9,68.7,48,29.89,10.0,ESE,6.9,-,N/A,,Clear,110,2013-07-20 22:55:00
6:15 PM,90.0,68.5,49,29.89,10.0,SE,9.2,16.1,N/A,Thunderstorm,Clear,140,2013-07-20 23:15:00
6:35 PM,87.1,67.8,53,29.89,10.0,SSE,12.7,-,N/A,,Clear,150,2013-07-20 23:35:00
6:55 PM,87.1,65.5,48,29.89,10.0,SE,10.4,-,N/A,,Clear,130,2013-07-20 23:55:00
7:15 PM,85.5,67.1,54,29.89,10.0,SE,6.9,-,N/A,,Clear,130,2013-07-21 00:15:00
7:35 PM,84.2,68.0,58,29.89,10.0,SSE,6.9,-,N/A,,Clear,160,2013-07-21 00:35:00
7:55 PM,83.3,68.5,61,29.90,10.0,SSE,9.2,-,N/A,,Clear,160,2013-07-21 00:55:00
8:15 PM,82.4,68.9,64,29.90,10.0,SSE,5.8,-,N/A,,Clear,160,2013-07-21 01:15:00
8:35 PM,81.5,69.8,67,29.91,10.0,SSE,3.5,-,N/A,,Clear,150,2013-07-21 01:35:00
8:55 PM,80.8,69.4,68,29.91,10.0,SSE,5.8,-,N/A,,Clear,150,2013-07-21 01:55:00
9:15 PM,81.0,68.9,67,29.91,10.0,SSE,8.1,-,N/A,,Clear,160,2013-07-21 02:15:00
9:35 PM,80.6,69.6,69,29.92,10.0,South,6.9,-,N/A,,Clear,170,2013-07-21 02:35:00
9:55 PM,80.2,69.8,70,29.93,10.0,South,9.2,-,N/A,,Clear,170,2013-07-21 02:55:00
10:15 PM,79.9,69.8,71,29.94,10.0,South,6.9,-,N/A,,Clear,180,2013-07-21 03:15:00
10:35 PM,79.3,69.8,72,29.94,10.0,South,6.9,-,N/A,,Clear,180,2013-07-21 03:35:00
10:55 PM,79.2,69.8,73,29.95,10.0,South,9.2,-,N/A,,Clear,190,2013-07-21 03:55:00
11:15 PM,79.0,69.4,72,29.95,10.0,SSW,8.1,-,N/A,,Clear,200,2013-07-21 04:15:00
11:35 PM,78.6,69.3,73,29.95,10.0,SSW,9.2,-,N/A,,Clear,200,2013-07-21 04:35:00
11:55 PM,78.4,69.1,73,29.96,10.0,SSW,9.2,-,N/A,,Clear,210,2013-07-21 04:55:00